[[{"header":{"parameterUnit":"m.s-1","parameterCategory":1,"la1":30.2991,"la2":30.254,"lo1":-89.0895,"lo2":-89.0444,"dy":0.0017,"dx":0.0017,"nx":28,"ny":28,"refTime":"2024-02-20T09:00:00:Z","depth":0,"parameterNumber":2,"parameterNumberName":"U-component_of_WINDS"},"data":[0,0,0,0,0,0,0,0,0,0,0,0,0,0,0,0,0,0,0,0,0,0,0,0,0,0,0,0,0,0,0,0,0,0,0,0,0,0,0,0,0,0,0,0,0,0,0,0,0,0,0,0,0,0,0,0,0,0,1.1614,1.1614,0,1.1597,1.1597,1.1597,1.1547,1.1546,1.1545,1.1544,1.1527,1.1528,1.1528,0,0,0,0,0,0,0,0,0,0,0,0,0,1.1606,1.1607,1.1614,1.1614,1.1614,1.1597,1.1597,1.1596,1.1547,1.1546,1.1545,1.1544,1.1527,1.1528,1.1528,0,0,0,0,0,0,0,0,0,0,0,0,0,1.1602,1.1607,1.1614,1.1587,1.1585,1.1597,1.1597,1.1596,1.1548,1.1546,1.1544,1.1543,1.1527,1.1528,1.1528,1.1566,0,0,1.1531,1.1531,0,0,0,0,0,0,0,0,1.1602,1.1602,1.1592,1.1589,1.1586,1.1573,1.1588,1.1586,1.1548,1.1562,1.1544,1.1542,1.1544,1.1543,1.1543,1.1565,1.1564,1.1531,1.1531,1.1532,1.1532,0,0,0,0,0,0,0,1.1602,1.1602,1.1607,1.1592,1.1588,1.1576,1.1574,1.1587,1.1562,1.156,1.1557,1.1555,1.1542,1.1543,1.1542,1.1564,1.1531,1.1532,1.1532,1.1533,1.1615,1.1616,0,0,0,0,0,0,1.1606,1.1603,1.1608,1.1607,1.159,1.1578,1.1575,1.1579,1.1562,1.1558,1.1557,1.1553,1.1542,1.1542,1.1542,1.1583,1.1532,1.1533,1.1533,1.1613,1.1615,1.1617,0,0,0,0,0,0,1.1606,1.1607,1.1609,1.1604,1.1603,1.158,1.1584,1.1579,1.158,1.1559,1.1554,1.1562,1.1541,1.1541,1.156,1.1582,1.1533,1.1534,1.1611,1.1614,1.1616,1.1668,0,0,0,0,0,0,1.1606,1.1608,1.1621,1.1605,1.1604,1.1627,1.1585,1.158,1.1581,1.1576,1.1563,1.1559,1.1539,1.1559,1.1561,1.1582,1.1534,1.1609,1.1612,1.1615,1.1664,1.1672,1.1678,0,0,0,0,0,1.1606,1.1637,1.1622,1.1623,1.162,1.1628,1.1628,1.1605,1.1583,1.1597,1.1583,1.1559,1.158,1.1561,1.1563,1.1585,1.1607,1.1611,1.1615,1.1661,1.167,1.1678,0,0,0,0,0,0,1.1657,1.1634,1.1618,1.1644,1.1638,1.162,1.1636,1.1616,1.1616,1.1612,1.1584,1.1581,1.1604,1.1597,1.1577,1.162,1.159,1.1594,1.1624,1.1633,1.164,1.164,1.1535,0,0,0,0,0,1.1671,1.1679,1.1659,1.1684,1.1682,1.166,1.1663,1.1645,1.1639,1.1636,1.1624,1.1619,1.1624,1.1628,1.1632,1.1663,1.1659,1.1679,1.1687,1.1693,1.1696,1.1711,1.172,1.1629,1.1629,1.1629,0,0,1.1701,1.1689,1.1696,1.1694,1.1688,1.1697,1.1658,1.167,1.1676,1.1638,1.1655,1.1647,1.1639,1.1664,1.1675,1.1659,1.1721,1.1697,1.1702,1.1703,1.1716,1.1725,1.1732,1.1632,1.1631,1.1631,0,0,1.1759,1.1751,1.1771,1.1765,1.1756,1.1741,1.1746,1.1731,1.1723,1.174,1.1711,1.1719,1.1729,1.1724,1.1723,1.178,1.1758,1.1783,1.182,1.1835,1.1842,1.1848,1.1867,1.1875,1.1787,1.1787,1.1787,0,1.1796,1.1809,1.1784,1.1797,1.1796,1.1762,1.1782,1.1778,1.1771,1.1772,1.1754,1.1765,1.1758,1.1781,1.1795,1.1796,1.18,1.1783,1.1843,1.1849,1.1854,1.1872,1.188,1.179,1.1789,1.1789,1.1789,0,1.1855,1.1864,1.1881,1.1874,1.1876,1.1893,1.187,1.1875,1.1858,1.1845,1.1863,1.1853,1.1853,1.1858,1.1842,1.1879,1.1869,1.1848,1.1816,1.1866,1.1883,1.189,1.1794,1.1793,1.1792,1.1791,0,0,1.1943,1.1923,1.1929,1.1925,1.1913,1.192,1.1935,1.1935,1.194,1.1937,1.1948,1.1957,1.1937,1.1936,1.1919,1.1933,1.1977,1.191,1.1909,1.1921,1.2017,1.2032,1.204,1.1963,1.1964,1.1965,1.2017,0,1.1997,1.202,1.1998,1.2026,1.2034,1.2002,1.2015,1.2009,1.1998,1.2003,1.1991,1.1997,1.1971,1.197,1.1982,1.1969,1.1996,1.1966,1.1973,1.1974,1.1974,1.2049,1.2065,1.2114,1.2024,1.2025,1.2025,0,1.2062,1.2061,1.2089,1.2075,1.2077,1.2089,1.2088,1.2093,1.2086,1.2077,1.2076,1.2055,1.2069,1.204,1.2058,1.2038,1.204,1.2035,1.2036,1.2034,1.2001,1.2048,1.213,1.2137,1.2036,1.2035,1.2034,0,1.2122,1.2128,1.2145,1.2143,1.2127,1.2136,1.213,1.2121,1.2123,1.2122,1.2123,1.2124,1.2124,1.2126,1.2106,1.2086,1.2127,1.2096,1.2119,1.212,1.2128,1.2127,1.2209,1.2132,1.2132,1.2132,1.2131,0,1.2183,1.2201,1.2172,1.2182,1.2202,1.2177,1.2198,1.2188,1.2181,1.219,1.2163,1.2172,1.2145,1.2152,1.2137,1.2154,1.2155,1.2147,1.2143,1.2149,1.2149,1.2148,1.2144,1.2133,1.2133,1.2133,1.2132,0,1.2252,1.2233,1.225,1.2233,1.223,1.2245,1.2231,1.224,1.2228,1.2239,1.224,1.222,1.2226,1.2206,1.2209,1.2199,1.2224,1.2215,1.2226,1.2223,1.2247,1.2244,1.2329,1.2339,1.2257,1.2258,1.2259,0,1.2291,1.2304,1.2289,1.2293,1.2288,1.2294,1.2295,1.2272,1.2275,1.2268,1.2278,1.2282,1.2283,1.2294,1.228,1.2282,1.2271,1.2301,1.2271,1.2277,1.227,1.2269,1.227,1.2307,1.2308,1.2309,1.2309,0,1.2362,1.2352,1.2355,1.2355,1.2357,1.2356,1.2353,1.2357,1.2332,1.2337,1.2342,1.2343,1.2346,1.2349,1.2349,1.2343,1.2322,1.2319,1.2324,1.233,1.2335,1.2331,1.2241,1.2317,1.2316,1.2316,1.2315,1.2315,1.2416,1.2426,1.2417,1.2421,1.2417,1.2414,1.2422,1.241,1.2414,1.2414,1.2401,1.2409,1.2402,1.2398,1.2395,1.2401,1.2387,1.2395,1.2396,1.2398,1.2402,1.2336,1.2401,1.24,1.24,1.24,1.24,0,1.2485,1.2478,1.2482,1.2478,1.2481,1.2462,1.2457,1.2461,1.2468,1.2464,1.2465,1.2472,1.2475,1.2462,1.2464,1.2471,1.2462,1.2472,1.247,1.2469,1.2415,1.2409,1.248,1.248,1.248,1.248,1.248,1.248,1.2521,1.2536,1.2526,1.2539,1.2532,1.2539,1.2538,1.2536,1.2531,1.2539,1.2542,1.2533,1.2525,1.2526,1.2529,1.2525,1.2526,1.254,1.2532,1.2481,1.2473,1.2466,1.246,1.2541,1.2541,1.2586,1.2587,1.2587]},{"header":{"parameterUnit":"m.s-1","parameterCategory":1,"la1":30.2991,"la2":30.254,"lo1":-89.0895,"lo2":-89.0444,"dy":0.0017,"dx":0.0017,"nx":28,"ny":28,"refTime":"2024-02-20T09:00:00:Z","depth":0,"parameterNumber":3,"parameterNumberName":"V-component_of_WINDS"},"data":[0,0,0,0,0,0,0,0,0,0,0,0,0,0,0,0,0,0,0,0,0,0,0,0,0,0,0,0,0,0,0,0,0,0,0,0,0,0,0,0,0,0,0,0,0,0,0,0,0,0,0,0,0,0,0,0,0,0,3.8509,3.851,0,3.8548,3.8549,3.8549,3.8504,3.8503,3.8501,3.8499,3.8538,3.854,3.8543,0,0,0,0,0,0,0,0,0,0,0,0,0,3.8394,3.8397,3.8509,3.851,3.851,3.8548,3.8549,3.8549,3.8504,3.8502,3.85,3.8499,3.8537,3.854,3.8543,0,0,0,0,0,0,0,0,0,0,0,0,0,3.844,3.8397,3.8509,3.8493,3.8491,3.8548,3.8549,3.8549,3.8505,3.8502,3.85,3.8498,3.8536,3.854,3.8544,3.8618,0,0,3.8556,3.8557,0,0,0,0,0,0,0,0,3.8437,3.8444,3.8495,3.8494,3.8493,3.8519,3.8522,3.8572,3.8506,3.85,3.8499,3.8496,3.8533,3.8537,3.855,3.862,3.8621,3.8556,3.8558,3.856,3.8561,0,0,0,0,0,0,0,3.8434,3.8442,3.8524,3.8495,3.8494,3.8482,3.8486,3.8531,3.853,3.85,3.8497,3.8502,3.8532,3.8547,3.8551,3.8622,3.8556,3.8559,3.8562,3.8563,3.8754,3.8756,0,0,0,0,0,0,3.8433,3.844,3.8523,3.8526,3.8458,3.8487,3.8491,3.8513,3.853,3.853,3.8504,3.85,3.8541,3.8546,3.8552,3.864,3.856,3.8563,3.8566,3.8751,3.8754,3.8757,0,0,0,0,0,0,3.8431,3.8441,3.8522,3.8482,3.8491,3.8491,3.8517,3.8515,3.8529,3.8533,3.8532,3.8519,3.8539,3.8546,3.8602,3.8641,3.8565,3.8569,3.8748,3.8752,3.8756,3.8817,0,0,0,0,0,0,3.8428,3.844,3.8469,3.8483,3.8494,3.8572,3.8519,3.8518,3.8536,3.8531,3.8547,3.8547,3.8538,3.8596,3.8606,3.8645,3.8572,3.8744,3.875,3.8755,3.8812,3.8823,3.8832,0,0,0,0,0,3.8424,3.8485,3.8471,3.8481,3.853,3.8574,3.858,3.8569,3.8539,3.8568,3.857,3.8546,3.8635,3.8602,3.8613,3.8653,3.8742,3.8748,3.8754,3.8807,3.8821,3.8832,0,0,0,0,0,0,3.8476,3.8486,3.8471,3.8539,3.8556,3.8567,3.8602,3.8584,3.861,3.8604,3.8588,3.8592,3.8651,3.8658,3.8621,3.8726,3.8683,3.8692,3.872,3.8733,3.8743,3.8741,3.8575,0,0,0,0,0,3.8495,3.8531,3.8538,3.8596,3.8606,3.8603,3.8622,3.8612,3.8629,3.8636,3.8642,3.8659,3.8691,3.8712,3.8741,3.8812,3.8815,3.8845,3.8855,3.8864,3.8872,3.8909,3.8923,3.8778,3.8778,3.8777,0,0,3.8535,3.8545,3.8569,3.8607,3.8619,3.8656,3.8609,3.865,3.8677,3.8642,3.8695,3.87,3.8718,3.8781,3.8809,3.8788,3.8912,3.8872,3.8878,3.8882,3.8917,3.8931,3.8943,3.8782,3.8781,3.878,0,0,3.8627,3.8639,3.8689,3.8702,3.8721,3.8718,3.873,3.8744,3.8746,3.8799,3.8773,3.8804,3.8859,3.8873,3.8887,3.8984,3.8963,3.8993,3.9048,3.9085,3.9096,3.9107,3.9141,3.9154,3.9001,3.9001,3.9001,0,3.8675,3.873,3.8717,3.876,3.8777,3.8747,3.8797,3.881,3.8838,3.885,3.8826,3.8894,3.8904,3.897,3.8993,3.9006,3.9019,3.8992,3.9096,3.9106,3.9115,3.9148,3.9161,3.9005,3.9004,3.9004,3.9004,0,3.8787,3.8826,3.8864,3.8892,3.8913,3.896,3.8953,3.8976,3.8964,3.8964,3.9017,3.9028,3.9059,3.9073,3.9062,3.9138,3.9124,3.9098,3.9055,3.9133,3.9164,3.9176,3.901,3.9009,3.9008,3.9007,0,0,3.8915,3.8934,3.8949,3.8961,3.8979,3.9008,3.9053,3.9083,3.9103,3.9123,3.916,3.9206,3.9182,3.9198,3.9188,3.922,3.9296,3.919,3.919,3.921,3.9381,3.9401,3.9416,3.9282,3.9284,3.9286,3.938,0,3.9008,3.9086,3.9075,3.915,3.9185,3.9156,3.9194,3.921,3.921,3.9239,3.9239,3.9273,3.9239,3.9248,3.9279,3.928,3.933,3.9273,3.9316,3.9318,3.9314,3.9432,3.9454,3.9542,3.9391,3.9393,3.9395,0,3.9127,3.9152,3.923,3.9243,3.9257,3.9292,3.9319,3.9347,3.9363,3.9361,3.9379,3.9363,3.9406,3.9362,3.9422,3.9384,3.94,3.9403,3.9407,3.9411,3.9362,3.944,3.9569,3.9583,3.9414,3.9412,3.9411,0,3.9213,3.9265,3.9319,3.933,3.9346,3.9371,3.9379,3.9392,3.9411,3.9434,3.9446,3.9474,3.9489,3.9511,3.9502,3.947,3.9564,3.9518,3.9563,3.9564,3.9585,3.9584,3.972,3.9595,3.9594,3.9594,3.9594,0,3.9319,3.9368,3.9358,3.9391,3.9445,3.9431,3.9485,3.9489,3.9501,3.9534,3.951,3.9541,3.9527,3.9557,3.955,3.9601,3.9608,3.9607,3.9605,3.961,3.9611,3.9622,3.9616,3.9598,3.9597,3.9596,3.9596,0,3.9424,3.9419,3.9476,3.9486,3.949,3.9529,3.9537,3.9568,3.9566,3.9608,3.9617,3.9615,3.9649,3.9641,3.9679,3.9674,3.9739,3.9728,3.9734,3.9731,3.9777,3.9773,3.9925,3.9945,3.9806,3.9807,3.9808,0,3.9493,3.953,3.9544,3.9565,3.9574,3.9607,3.9627,3.9614,3.9634,3.9655,3.9683,3.9715,3.974,3.9796,3.9797,3.9826,3.9817,3.9868,3.9821,3.9825,3.9818,3.9817,3.982,3.9878,3.9879,3.988,3.9881,0,3.9615,3.961,3.9639,3.9667,3.969,3.9712,3.973,3.9748,3.9737,3.9761,3.9796,3.9815,3.9854,3.9886,3.9912,3.9919,3.9899,3.9896,3.9908,3.9914,3.9916,3.9916,3.976,3.9893,3.9892,3.9891,3.989,3.989,3.9704,3.9736,3.9751,3.9783,3.9796,3.9814,3.9844,3.9845,3.9874,3.9905,3.9895,3.9935,3.9949,3.9982,3.9992,4.0022,4.0003,4.0021,4.0025,4.003,4.0036,3.991,4.0027,4.0027,4.0026,4.0026,4.0026,0,3.9825,3.9833,3.9863,3.9891,3.9916,3.9894,3.9914,3.9936,3.9972,3.9987,4.0012,4.0052,4.0083,4.0086,4.0115,4.0139,4.013,4.0147,4.0146,4.0148,4.0051,4.0038,4.0153,4.0153,4.0153,4.0153,4.0153,4.0153,3.9892,3.9944,3.9942,4.0,4.0007,4.0046,4.0059,4.0076,4.0088,4.0133,4.0159,4.0161,4.0171,4.02,4.0227,4.0227,4.0239,4.026,4.0257,4.0167,4.0154,4.0142,4.013,4.0263,4.0263,4.0351,4.0352,4.0352]}]]